Find Kosmos-1850

NORAD ID: 18095 Int'l Des: 1987-049 Owner: UNKS Country: SU operational
LEOCIRCULAR

リアルタイム位置

3D地球を読み込み中...

Kosmos-1850について

説明を読み込み中...

次回通過

Passes for default location (London). Set your location on the main map for personalized predictions.

高度履歴

Loading altitude history...

軌道要素

1 18095U 87049A 26106.14812011 .00000073 00000-0 35560-4 0 9997
2 18095 74.0391 170.3576 0015178 204.8160 155.2263 14.34116574 31016
Epoch: Apr 16, 2026 • Age: 14 hours

現在のステータス

高度 771.0 km
速度 7.47 km/s
衛星直下点 11.62°N, 124.9°W
打ち上げ日 Jun 9, 1987
運用期間 38.8 years
タイプ other

技術仕様

分類 Payload
質量 800.00 kg
乾燥質量 800.00 kg
総質量 800.00 kg
長さ 3.00 m
直径 2.00 m
スパン 3.00 m
形状 Cyl
製造者 NPOPM
バスタイプ Strela-2M
フェーズステータス In Orbit
所有者/国 UNKS/SU

Most Searched